Lid_Strength_Index
4 3 3 3 3 3 2 2 2 2 2 1 1 1 0 -1 -1 -2 -2 -2 -2 -2 -1 -1 -0 -0 1 6 6 2 -0 1 -0 1 3 5 6 7 10 9 8 10 9 7 6 6 7
4 3 3 3 3 3 2 2 3 2 2 1 1 1 -1 -1 -2 -2 -2 -2 -2 -2 -2 -1 -1 -0 3 9 1 2 2 0 1 2 3 4 6 5 8 8 9 8 8 8 7 7 7
4 3 4 3 3 3 3 3 3 2 2 1 1 -0 -1 -2 -2 -2 -2 -2 -2 -2 -2 -2 -1 1 4 6 2 3 0 1 1 2 4 3 3 6 6 9 6 8 11 9 8 8 8
3 4 4 3 3 3 3 3 3 2 1 1 1 -1 -1 -2 -2 -2 -2 -2 -2 -1 -2 -2 -1 1 7 0 1 2 3 2 1 1 2 2 2 5 7 6 8 10 11 15 10 8 8
4 4 4 4 3 3 3 3 2 2 2 1 -1 -2 -2 -2 -2 -2 -2 -2 -2 -2 -2 -1 2 3 7 -0 3 2 3 3 2 2 2 2 3 7 8 11 13 12 16 15 12 8 9
4 4 4 4 3 3 3 3 2 2 1 1 -1 -2 -2 -2 -2 -1 -1 -1 -1 -1 0 0 1 6 4 6 3 3 3 3 4 4 5 6 7 10 10 12 17 15 16 15 14 11 11
4 4 4 4 4 3 3 3 2 2 1 1 -1 -2 -2 -2 -2 -1 -0 2 5 6 4 7 6 6 5 3 2 4 3 4 4 6 11 8 12 14 12 11 11 12 13 14 12 10 13
4 4 4 4 4 3 3 3 2 2 1 0 -2 -2 -2 -1 -1 -1 1 4 5 4 8 5 5 5 4 3 7 5 3 7 8 11 9 11 14 10 9 9 11 12 14 15 12 11 13
4 5 4 4 4 4 4 2 2 2 1 -1 -2 -1 -1 -1 -1 1 3 3 2 2 8 7 5 6 5 4 7 7 5 6 9 11 11 13 11 9 10 11 12 13 14 14 14 13 14
4 4 4 4 4 4 3 2 2 1 -0 -1 -2 -1 -1 -1 2 1 3 0 1 0 18 11 8 6 5 5 8 4 4 6 9 11 10 11 9 10 11 12 11 15 11 13 13 15 18
4 4 4 4 4 5 3 2 1 1 -0 -0 -1 -1 -1 -1 2 3 2 -0 0 4 27 9 8 3 5 7 7 7 3 6 10 10 10 12 11 12 13 12 10 13 12 14 15 16 19
4 4 4 4 4 5 4 2 1 0 -0 0 0 -1 -1 0 1 1 0 1 4 17 22 12 8 9 9 8 8 7 7 5 6 9 9 11 8 9 11 11 11 12 14 15 17 18 22
4 4 4 4 5 5 3 2 1 1 0 0 1 1 0 0 4 -1 -0 5 18 21 10 13 12 10 10 11 10 9 10 11 13 15 15 11 11 9 9 12 11 12 14 18 23 24 23
4 4 4 4 4 5 4 3 2 1 0 -0 1 2 2 2 1 3 4 11 21 13 13 10 10 10 13 11 11 10 11 13 10 11 14 16 17 11 10 11 13 15 15 20 23 23 21
3 4 4 4 5 5 4 3 2 2 1 1 3 6 5 2 3 4 9 18 18 14 11 12 11 14 13 11 11 12 12 12 11 11 15 16 16 10 10 10 11 14 18 15 19 21 23
3 3 4 4 5 5 5 4 3 2 1 2 8 8 8 4 2 6 14 14 13 11 10 10 14 12 15 13 13 13 12 10 11 10 11 14 17 12 11 10 10 13 13 19 22 24 23
3 3 4 4 5 5 5 4 3 2 2 3 10 11 7 4 6 10 14 12 11 8 8 11 13 13 13 13 12 13 13 11 9 11 10 12 14 14 10 14 14 14 17 16 17 19 22
3 3 4 4 5 5 5 4 3 2 2 5 11 15 7 6 12 11 11 10 8 9 8 9 10 11 12 12 13 13 13 12 9 9 12 11 13 16 14 13 12 13 14 16 21 22 18
3 3 4 5 5 5 6 5 4 3 2 4 12 12 7 7 12 11 10 10 8 10 10 10 11 10 11 13 14 13 12 9 9 9 11 11 16 21 16 13 13 14 13 15 16 19 24
4 4 4 4 5 5 6 5 4 4 3 5 11 14 10 9 8 9 11 11 11 8 9 10 11 10 11 13 12 13 12 9 9 9 7 9 15 17 20 18 15 17 15 15 17 21 20
4 4 4 4 4 5 6 6 5 4 3 6 11 11 8 11 10 10 9 10 12 12 9 9 10 10 11 13 13 13 12 11 9 7 10 11 18 17 15 14 16 15 15 15 19 16 20
4 4 4 3 4 5 6 6 5 5 4 8 9 10 8 10 10 10 11 11 12 11 10 11 11 11 11 12 13 14 12 12 12 10 11 12 16 16 18 15 15 16 15 14 15 15 16
4 4 4 4 5 5 6 6 6 6 6 11 7 6 8 10 12 13 13 11 10 10 9 8 10 10 11 11 11 10 10 10 11 12 12 12 16 18 21 16 16 17 15 14 15 15 14
4 4 4 4 5 5 6 6 7 6 7 9 8 8 10 13 13 12 11 10 10 10 10 8 8 10 9 8 9 9 10 10 10 11 11 14 16 16 20 17 22 15 11 13 14 14 14
4 4 4 4 4 5 6 6 7 7 6 10 8 8 9 11 12 11 10 10 10 10 10 10 9 8 7 9 11 13 13 13 12 11 11 11 12 16 17 20 17 14 12 14 14 13 12
4 4 4 5 5 5 6 6 7 7 7 10 9 6 8 10 12 8 10 10 12 13 11 10 8 7 8 10 12 15 17 15 15 13 9 10 11 15 16 18 20 14 11 10 11 15 11
5 5 4 5 5 5 6 6 7 7 7 9 10 6 9 10 7 7 11 11 9 11 12 10 9 10 9 13 14 16 16 12 16 15 14 14 13 15 15 16 16 13 11 9 16 15 10
5 5 5 5 6 5 6 6 7 7 7 9 10 6 7 9 7 6 5 9 9 9 10 9 10 10 11 13 14 15 16 13 14 12 13 14 15 15 14 16 19 12 10 12 10 9 10
6 6 6 6 6 6 7 7 7 6 6 7 11 6 4 7 7 5 6 6 5 6 7 7 8 8 8 11 13 12 13 12 13 16 12 15 13 14 14 15 12 10 11 10 9 9 10